TimeAKDT,TemperatureF,Dew PointF,Humidity,Sea Level PressureIn,VisibilityMPH,Wind Direction,Wind SpeedMPH,Gust SpeedMPH,PrecipitationIn,Events,Conditions,WindDirDegrees,DateUTC
12:56 AM,24.1,12.9,62,30.27,10.0,ENE,8.1,-,N/A,,Clear,60,2012-10-11 08:56:00
1:56 AM,24.1,12.0,60,30.25,10.0,ENE,11.5,-,N/A,,Clear,70,2012-10-11 09:56:00
2:56 AM,24.1,12.0,60,30.23,10.0,ENE,9.2,-,N/A,,Clear,70,2012-10-11 10:56:00
3:56 AM,21.9,10.9,63,30.20,10.0,ENE,10.4,-,N/A,,Clear,70,2012-10-11 11:56:00
4:56 AM,21.9,10.9,63,30.18,10.0,ENE,5.8,-,N/A,,Clear,60,2012-10-11 12:56:00
5:56 AM,19.9,10.0,65,30.16,10.0,ENE,8.1,-,N/A,,Clear,60,2012-10-11 13:56:00
6:24 AM,19.4,10.4,68,30.12,7.0,ENE,8.1,-,N/A,,Scattered Clouds,70,2012-10-11 14:24:00
6:55 AM,19.4,10.4,68,30.14,7.0,ENE,5.8,-,N/A,,Scattered Clouds,60,2012-10-11 14:55:00
7:55 AM,17.6,8.6,68,30.12,7.0,ENE,5.8,-,N/A,,Scattered Clouds,70,2012-10-11 15:55:00
8:55 AM,17.6,8.6,68,30.11,25.0,ENE,6.9,-,N/A,,Scattered Clouds,70,2012-10-11 16:55:00
9:55 AM,19.4,10.4,68,30.09,7.0,ENE,6.9,-,N/A,,Partly Cloudy,70,2012-10-11 17:55:00
10:55 AM,23.0,10.4,59,30.07,25.0,ENE,5.8,-,N/A,,Partly Cloudy,70,2012-10-11 18:55:00
11:55 AM,26.6,10.4,51,30.05,25.0,NE,6.9,-,N/A,,Partly Cloudy,50,2012-10-11 19:55:00
12:55 PM,28.4,10.4,47,30.03,25.0,Calm,Calm,-,N/A,,Partly Cloudy,0,2012-10-11 20:55:00
1:55 PM,32.0,8.6,38,30.00,25.0,Calm,Calm,-,N/A,,Clear,0,2012-10-11 21:55:00
2:55 PM,33.8,6.8,32,29.97,25.0,Calm,Calm,-,N/A,,Clear,0,2012-10-11 22:55:00
3:55 PM,35.6,6.8,30,29.94,25.0,Calm,Calm,-,N/A,,Clear,0,2012-10-11 23:55:00
4:55 PM,35.6,6.8,30,29.94,25.0,Calm,Calm,-,N/A,,Clear,0,2012-10-12 00:55:00
5:55 PM,35.6,8.6,33,29.90,25.0,Calm,Calm,-,N/A,,Clear,0,2012-10-12 01:55:00
6:55 PM,28.4,15.8,59,29.87,25.0,Calm,Calm,-,N/A,,Clear,0,2012-10-12 02:55:00
7:55 PM,26.6,14.0,59,29.87,25.0,Calm,Calm,-,N/A,,Clear,0,2012-10-12 03:55:00
8:55 PM,23.0,10.4,59,29.83,25.0,Variable,4.6,-,N/A,,Clear,0,2012-10-12 04:55:00
9:55 PM,21.2,12.2,68,29.83,25.0,East,2.3,-,N/A,,Clear,90,2012-10-12 05:55:00
10:56 PM,18.0,10.9,74,29.79,10.0,Calm,Calm,-,N/A,,Clear,0,2012-10-12 06:56:00
11:56 PM,18.0,10.0,71,29.78,10.0,Calm,Calm,-,N/A,,Clear,0,2012-10-12 07:56:00